<?xml version="1.0" encoding="UTF-8" standalone="no" ?>
<gpx xmlns="http://www.topografix.com/GPX/1/1" xmlns:xsi="http://www.w3.org/2001/XMLSchema-instance" xsi:schemaLocation="http://www.topografix.com/GPX/1/1 http://www.topografix.com/GPX/1/1/gpx.xsd" version="1.1" creator="VisuGPX - https://www.visugpx.com">
  <metadata>
    <name>circuit vtt 12 haut vallespir</name>
    <desc><![CDATA[espace vtt haut vallespir]]></desc>
  </metadata>
  <trk>
    <name><![CDATA[12 - TraceGps issued]]></name>
    <trkseg>
      <trkpt lat="42.46906" lon="2.57823">
        <ele>808.401184</ele>
        <time>2008-01-22T00:00:00Z</time>
      </trkpt>
      <trkpt lat="42.46894" lon="2.57796">
        <ele>808.864746</ele>
        <time>2008-01-22T00:00:00Z</time>
      </trkpt>
      <trkpt lat="42.46895" lon="2.57787">
        <ele>809.121216</ele>
        <time>2008-01-22T00:00:00Z</time>
      </trkpt>
      <trkpt lat="42.46912" lon="2.57775">
        <ele>809.592896</ele>
        <time>2008-01-22T00:00:00Z</time>
      </trkpt>
      <trkpt lat="42.46929" lon="2.57757">
        <ele>810.875916</ele>
        <time>2008-01-22T00:00:00Z</time>
      </trkpt>
      <trkpt lat="42.46946" lon="2.57727">
        <ele>812.460999</ele>
        <time>2008-01-22T00:00:00Z</time>
      </trkpt>
      <trkpt lat="42.46974" lon="2.57697">
        <ele>815.894104</ele>
        <time>2008-01-22T00:00:00Z</time>
      </trkpt>
      <trkpt lat="42.47004" lon="2.57686">
        <ele>813.213501</ele>
        <time>2008-01-22T00:00:00Z</time>
      </trkpt>
      <trkpt lat="42.47013" lon="2.57673">
        <ele>814.436951</ele>
        <time>2008-01-22T00:00:00Z</time>
      </trkpt>
      <trkpt lat="42.47024" lon="2.57652">
        <ele>815.216553</ele>
        <time>2008-01-22T00:00:00Z</time>
      </trkpt>
      <trkpt lat="42.47027" lon="2.57632">
        <ele>816.88678</ele>
        <time>2008-01-22T00:00:00Z</time>
      </trkpt>
      <trkpt lat="42.47024" lon="2.57607">
        <ele>820.006042</ele>
        <time>2008-01-22T00:00:00Z</time>
      </trkpt>
      <trkpt lat="42.47027" lon="2.57554">
        <ele>820.38092</ele>
        <time>2008-01-22T00:00:00Z</time>
      </trkpt>
      <trkpt lat="42.47009" lon="2.57518">
        <ele>822.643372</ele>
        <time>2008-01-22T00:00:00Z</time>
      </trkpt>
      <trkpt lat="42.46995" lon="2.57505">
        <ele>824.659729</ele>
        <time>2008-01-22T00:00:00Z</time>
      </trkpt>
      <trkpt lat="42.46967" lon="2.57467">
        <ele>829.486084</ele>
        <time>2008-01-22T00:00:00Z</time>
      </trkpt>
      <trkpt lat="42.46957" lon="2.57446">
        <ele>831.703979</ele>
        <time>2008-01-22T00:00:00Z</time>
      </trkpt>
      <trkpt lat="42.46941" lon="2.57356">
        <ele>841.733215</ele>
        <time>2008-01-22T00:00:00Z</time>
      </trkpt>
      <trkpt lat="42.46945" lon="2.5732">
        <ele>844.218262</ele>
        <time>2008-01-22T00:00:00Z</time>
      </trkpt>
      <trkpt lat="42.46982" lon="2.5722">
        <ele>849.924866</ele>
        <time>2008-01-22T00:00:00Z</time>
      </trkpt>
      <trkpt lat="42.46993" lon="2.5718">
        <ele>854.241333</ele>
        <time>2008-01-22T00:00:00Z</time>
      </trkpt>
      <trkpt lat="42.46989" lon="2.57132">
        <ele>860.319885</ele>
        <time>2008-01-22T00:00:00Z</time>
      </trkpt>
      <trkpt lat="42.46995" lon="2.57031">
        <ele>869.634644</ele>
        <time>2008-01-22T00:00:00Z</time>
      </trkpt>
      <trkpt lat="42.47029" lon="2.56922">
        <ele>877.411987</ele>
        <time>2008-01-22T00:00:00Z</time>
      </trkpt>
      <trkpt lat="42.47041" lon="2.56891">
        <ele>880.023438</ele>
        <time>2008-01-22T00:00:00Z</time>
      </trkpt>
      <trkpt lat="42.47047" lon="2.56853">
        <ele>885.312439</ele>
        <time>2008-01-22T00:00:00Z</time>
      </trkpt>
      <trkpt lat="42.47069" lon="2.56829">
        <ele>883.242371</ele>
        <time>2008-01-22T00:00:00Z</time>
      </trkpt>
      <trkpt lat="42.47102" lon="2.56778">
        <ele>886.473206</ele>
        <time>2008-01-22T00:00:00Z</time>
      </trkpt>
      <trkpt lat="42.47136" lon="2.5672">
        <ele>892.177795</ele>
        <time>2008-01-22T00:00:00Z</time>
      </trkpt>
      <trkpt lat="42.47177" lon="2.56629">
        <ele>900.155762</ele>
        <time>2008-01-22T00:00:00Z</time>
      </trkpt>
      <trkpt lat="42.47183" lon="2.56591">
        <ele>904.077637</ele>
        <time>2008-01-22T00:00:00Z</time>
      </trkpt>
      <trkpt lat="42.47198" lon="2.56541">
        <ele>907.698975</ele>
        <time>2008-01-22T00:00:00Z</time>
      </trkpt>
      <trkpt lat="42.47215" lon="2.56515">
        <ele>909.804749</ele>
        <time>2008-01-22T00:00:00Z</time>
      </trkpt>
      <trkpt lat="42.47233" lon="2.56517">
        <ele>906.301025</ele>
        <time>2008-01-22T00:00:00Z</time>
      </trkpt>
      <trkpt lat="42.47238" lon="2.56505">
        <ele>908.359497</ele>
        <time>2008-01-22T00:00:00Z</time>
      </trkpt>
      <trkpt lat="42.47244" lon="2.56485">
        <ele>911.240967</ele>
        <time>2008-01-22T00:00:00Z</time>
      </trkpt>
      <trkpt lat="42.47261" lon="2.56448">
        <ele>916.912659</ele>
        <time>2008-01-22T00:00:00Z</time>
      </trkpt>
      <trkpt lat="42.47275" lon="2.56442">
        <ele>918.362305</ele>
        <time>2008-01-22T00:00:00Z</time>
      </trkpt>
      <trkpt lat="42.47318" lon="2.5644">
        <ele>922.19397</ele>
        <time>2008-01-22T00:00:00Z</time>
      </trkpt>
      <trkpt lat="42.47346" lon="2.56488">
        <ele>914.380981</ele>
        <time>2008-01-22T00:00:00Z</time>
      </trkpt>
      <trkpt lat="42.47402" lon="2.56534">
        <ele>912.738159</ele>
        <time>2008-01-22T00:00:00Z</time>
      </trkpt>
      <trkpt lat="42.47424" lon="2.56551">
        <ele>912.549072</ele>
        <time>2008-01-22T00:00:00Z</time>
      </trkpt>
      <trkpt lat="42.47468" lon="2.56575">
        <ele>909.35199</ele>
        <time>2008-01-22T00:00:00Z</time>
      </trkpt>
      <trkpt lat="42.47499" lon="2.56569">
        <ele>908.06311</ele>
        <time>2008-01-22T00:00:00Z</time>
      </trkpt>
      <trkpt lat="42.47539" lon="2.56545">
        <ele>909.596741</ele>
        <time>2008-01-22T00:00:00Z</time>
      </trkpt>
      <trkpt lat="42.47566" lon="2.56519">
        <ele>913.54895</ele>
        <time>2008-01-22T00:00:00Z</time>
      </trkpt>
      <trkpt lat="42.47596" lon="2.56499">
        <ele>914.375488</ele>
        <time>2008-01-22T00:00:00Z</time>
      </trkpt>
      <trkpt lat="42.47615" lon="2.56479">
        <ele>916.48822</ele>
        <time>2008-01-22T00:00:00Z</time>
      </trkpt>
      <trkpt lat="42.47648" lon="2.56436">
        <ele>919.463501</ele>
        <time>2008-01-22T00:00:00Z</time>
      </trkpt>
      <trkpt lat="42.47682" lon="2.56413">
        <ele>919.542236</ele>
        <time>2008-01-22T00:00:00Z</time>
      </trkpt>
      <trkpt lat="42.47693" lon="2.56396">
        <ele>921.828735</ele>
        <time>2008-01-22T00:00:00Z</time>
      </trkpt>
      <trkpt lat="42.4771" lon="2.56327">
        <ele>932.227783</ele>
        <time>2008-01-22T00:00:00Z</time>
      </trkpt>
      <trkpt lat="42.47773" lon="2.562">
        <ele>938.466064</ele>
        <time>2008-01-22T00:00:00Z</time>
      </trkpt>
      <trkpt lat="42.47777" lon="2.56182">
        <ele>938.211792</ele>
        <time>2008-01-22T00:00:00Z</time>
      </trkpt>
      <trkpt lat="42.47758" lon="2.56133">
        <ele>947.625977</ele>
        <time>2008-01-22T00:00:00Z</time>
      </trkpt>
      <trkpt lat="42.47746" lon="2.56117">
        <ele>952.106201</ele>
        <time>2008-01-22T00:00:00Z</time>
      </trkpt>
      <trkpt lat="42.47704" lon="2.56042">
        <ele>952.232849</ele>
        <time>2008-01-22T00:00:00Z</time>
      </trkpt>
      <trkpt lat="42.47687" lon="2.56024">
        <ele>949.330872</ele>
        <time>2008-01-22T00:00:00Z</time>
      </trkpt>
      <trkpt lat="42.47638" lon="2.56039">
        <ele>960.188354</ele>
        <time>2008-01-22T00:00:00Z</time>
      </trkpt>
      <trkpt lat="42.47623" lon="2.56032">
        <ele>960.012268</ele>
        <time>2008-01-22T00:00:00Z</time>
      </trkpt>
      <trkpt lat="42.47581" lon="2.5599">
        <ele>958.866333</ele>
        <time>2008-01-22T00:00:00Z</time>
      </trkpt>
      <trkpt lat="42.4755" lon="2.55974">
        <ele>959.549927</ele>
        <time>2008-01-22T00:00:00Z</time>
      </trkpt>
      <trkpt lat="42.47506" lon="2.5598">
        <ele>965.179504</ele>
        <time>2008-01-22T00:00:00Z</time>
      </trkpt>
      <trkpt lat="42.47477" lon="2.56001">
        <ele>970.267456</ele>
        <time>2008-01-22T00:00:00Z</time>
      </trkpt>
      <trkpt lat="42.47458" lon="2.55988">
        <ele>971.866272</ele>
        <time>2008-01-22T00:00:00Z</time>
      </trkpt>
      <trkpt lat="42.47424" lon="2.55913">
        <ele>973.948181</ele>
        <time>2008-01-22T00:00:00Z</time>
      </trkpt>
      <trkpt lat="42.47387" lon="2.5585">
        <ele>981.225647</ele>
        <time>2008-01-22T00:00:00Z</time>
      </trkpt>
      <trkpt lat="42.47388" lon="2.55819">
        <ele>984.549561</ele>
        <time>2008-01-22T00:00:00Z</time>
      </trkpt>
      <trkpt lat="42.47396" lon="2.55784">
        <ele>985.849304</ele>
        <time>2008-01-22T00:00:00Z</time>
      </trkpt>
      <trkpt lat="42.47418" lon="2.55733">
        <ele>985.827454</ele>
        <time>2008-01-22T00:00:00Z</time>
      </trkpt>
      <trkpt lat="42.47435" lon="2.55657">
        <ele>987.607422</ele>
        <time>2008-01-22T00:00:00Z</time>
      </trkpt>
      <trkpt lat="42.47434" lon="2.55633">
        <ele>986.9375</ele>
        <time>2008-01-22T00:00:00Z</time>
      </trkpt>
      <trkpt lat="42.47421" lon="2.55617">
        <ele>991.106018</ele>
        <time>2008-01-22T00:00:00Z</time>
      </trkpt>
      <trkpt lat="42.47405" lon="2.55613">
        <ele>997.192139</ele>
        <time>2008-01-22T00:00:00Z</time>
      </trkpt>
      <trkpt lat="42.47373" lon="2.55611">
        <ele>1009.652405</ele>
        <time>2008-01-22T00:00:00Z</time>
      </trkpt>
      <trkpt lat="42.47359" lon="2.55598">
        <ele>1012.74231</ele>
        <time>2008-01-22T00:00:00Z</time>
      </trkpt>
      <trkpt lat="42.47342" lon="2.55528">
        <ele>1007.384338</ele>
        <time>2008-01-22T00:00:00Z</time>
      </trkpt>
      <trkpt lat="42.47323" lon="2.55499">
        <ele>1007.949341</ele>
        <time>2008-01-22T00:00:00Z</time>
      </trkpt>
      <trkpt lat="42.47292" lon="2.5548">
        <ele>1016.614746</ele>
        <time>2008-01-22T00:00:00Z</time>
      </trkpt>
      <trkpt lat="42.47281" lon="2.55463">
        <ele>1018.179626</ele>
        <time>2008-01-22T00:00:00Z</time>
      </trkpt>
      <trkpt lat="42.47282" lon="2.55403">
        <ele>1010.603882</ele>
        <time>2008-01-22T00:00:00Z</time>
      </trkpt>
      <trkpt lat="42.47274" lon="2.55383">
        <ele>1011.804016</ele>
        <time>2008-01-22T00:00:00Z</time>
      </trkpt>
      <trkpt lat="42.47234" lon="2.55346">
        <ele>1023.587158</ele>
        <time>2008-01-22T00:00:00Z</time>
      </trkpt>
      <trkpt lat="42.4722" lon="2.55312">
        <ele>1022.502869</ele>
        <time>2008-01-22T00:00:00Z</time>
      </trkpt>
      <trkpt lat="42.47222" lon="2.55288">
        <ele>1019.672913</ele>
        <time>2008-01-22T00:00:00Z</time>
      </trkpt>
      <trkpt lat="42.47249" lon="2.55219">
        <ele>1001.903809</ele>
        <time>2008-01-22T00:00:00Z</time>
      </trkpt>
      <trkpt lat="42.47244" lon="2.55203">
        <ele>1002.252258</ele>
        <time>2008-01-22T00:00:00Z</time>
      </trkpt>
      <trkpt lat="42.47191" lon="2.55162">
        <ele>1015.141479</ele>
        <time>2008-01-22T00:00:00Z</time>
      </trkpt>
      <trkpt lat="42.47121" lon="2.55101">
        <ele>1018.997742</ele>
        <time>2008-01-22T00:00:00Z</time>
      </trkpt>
      <trkpt lat="42.47073" lon="2.55091">
        <ele>1026.764282</ele>
        <time>2008-01-22T00:00:00Z</time>
      </trkpt>
      <trkpt lat="42.47059" lon="2.55082">
        <ele>1027.063843</ele>
        <time>2008-01-22T00:00:00Z</time>
      </trkpt>
      <trkpt lat="42.47055" lon="2.55069">
        <ele>1023.482178</ele>
        <time>2008-01-22T00:00:00Z</time>
      </trkpt>
      <trkpt lat="42.47128" lon="2.54912">
        <ele>1035.428345</ele>
        <time>2008-01-22T00:00:00Z</time>
      </trkpt>
      <trkpt lat="42.47137" lon="2.54884">
        <ele>1038.5802</ele>
        <time>2008-01-22T00:00:00Z</time>
      </trkpt>
      <trkpt lat="42.47115" lon="2.54754">
        <ele>1050.385498</ele>
        <time>2008-01-22T00:00:00Z</time>
      </trkpt>
      <trkpt lat="42.47098" lon="2.54719">
        <ele>1052.932373</ele>
        <time>2008-01-22T00:00:00Z</time>
      </trkpt>
      <trkpt lat="42.47047" lon="2.54702">
        <ele>1065.872681</ele>
        <time>2008-01-22T00:00:00Z</time>
      </trkpt>
      <trkpt lat="42.47028" lon="2.54682">
        <ele>1068.331421</ele>
        <time>2008-01-22T00:00:00Z</time>
      </trkpt>
      <trkpt lat="42.47031" lon="2.54622">
        <ele>1059.977905</ele>
        <time>2008-01-22T00:00:00Z</time>
      </trkpt>
      <trkpt lat="42.47014" lon="2.54576">
        <ele>1061.322266</ele>
        <time>2008-01-22T00:00:00Z</time>
      </trkpt>
      <trkpt lat="42.47002" lon="2.54557">
        <ele>1063.033569</ele>
        <time>2008-01-22T00:00:00Z</time>
      </trkpt>
      <trkpt lat="42.46997" lon="2.54535">
        <ele>1062.022339</ele>
        <time>2008-01-22T00:00:00Z</time>
      </trkpt>
      <trkpt lat="42.46968" lon="2.54503">
        <ele>1067.645508</ele>
        <time>2008-01-22T00:00:00Z</time>
      </trkpt>
      <trkpt lat="42.46953" lon="2.54471">
        <ele>1067.080566</ele>
        <time>2008-01-22T00:00:00Z</time>
      </trkpt>
      <trkpt lat="42.46943" lon="2.54462">
        <ele>1069.046875</ele>
        <time>2008-01-22T00:00:00Z</time>
      </trkpt>
      <trkpt lat="42.4694" lon="2.54473">
        <ele>1072.558838</ele>
        <time>2008-01-22T00:00:00Z</time>
      </trkpt>
      <trkpt lat="42.46957" lon="2.54506">
        <ele>1072.540894</ele>
        <time>2008-01-22T00:00:00Z</time>
      </trkpt>
      <trkpt lat="42.46957" lon="2.54598">
        <ele>1083.218018</ele>
        <time>2008-01-22T00:00:00Z</time>
      </trkpt>
      <trkpt lat="42.46958" lon="2.54651">
        <ele>1087.073853</ele>
        <time>2008-01-22T00:00:00Z</time>
      </trkpt>
      <trkpt lat="42.46944" lon="2.54716">
        <ele>1098.684937</ele>
        <time>2008-01-22T00:00:00Z</time>
      </trkpt>
      <trkpt lat="42.46946" lon="2.54748">
        <ele>1101.717285</ele>
        <time>2008-01-22T00:00:00Z</time>
      </trkpt>
      <trkpt lat="42.46963" lon="2.54781">
        <ele>1100.860352</ele>
        <time>2008-01-22T00:00:00Z</time>
      </trkpt>
      <trkpt lat="42.46969" lon="2.54884">
        <ele>1102.577515</ele>
        <time>2008-01-22T00:00:00Z</time>
      </trkpt>
      <trkpt lat="42.46971" lon="2.54905">
        <ele>1099.302734</ele>
        <time>2008-01-22T00:00:00Z</time>
      </trkpt>
      <trkpt lat="42.46965" lon="2.54911">
        <ele>1100.602417</ele>
        <time>2008-01-22T00:00:00Z</time>
      </trkpt>
      <trkpt lat="42.46959" lon="2.54903">
        <ele>1103.576172</ele>
        <time>2008-01-22T00:00:00Z</time>
      </trkpt>
      <trkpt lat="42.46951" lon="2.54882">
        <ele>1108.554932</ele>
        <time>2008-01-22T00:00:00Z</time>
      </trkpt>
      <trkpt lat="42.46888" lon="2.54773">
        <ele>1123.579224</ele>
        <time>2008-01-22T00:00:00Z</time>
      </trkpt>
      <trkpt lat="42.46861" lon="2.54757">
        <ele>1133.105835</ele>
        <time>2008-01-22T00:00:00Z</time>
      </trkpt>
      <trkpt lat="42.46837" lon="2.5468">
        <ele>1138.081543</ele>
        <time>2008-01-22T00:00:00Z</time>
      </trkpt>
      <trkpt lat="42.46819" lon="2.54588">
        <ele>1136.611572</ele>
        <time>2008-01-22T00:00:00Z</time>
      </trkpt>
      <trkpt lat="42.46811" lon="2.54579">
        <ele>1138.279297</ele>
        <time>2008-01-22T00:00:00Z</time>
      </trkpt>
      <trkpt lat="42.46805" lon="2.54582">
        <ele>1141.175293</ele>
        <time>2008-01-22T00:00:00Z</time>
      </trkpt>
      <trkpt lat="42.4681" lon="2.54613">
        <ele>1143.523926</ele>
        <time>2008-01-22T00:00:00Z</time>
      </trkpt>
      <trkpt lat="42.46807" lon="2.54742">
        <ele>1155.667969</ele>
        <time>2008-01-22T00:00:00Z</time>
      </trkpt>
      <trkpt lat="42.46798" lon="2.54802">
        <ele>1160.279175</ele>
        <time>2008-01-22T00:00:00Z</time>
      </trkpt>
      <trkpt lat="42.46736" lon="2.55019">
        <ele>1168.602417</ele>
        <time>2008-01-22T00:00:00Z</time>
      </trkpt>
      <trkpt lat="42.4664" lon="2.55103">
        <ele>1179.099487</ele>
        <time>2008-01-22T00:00:00Z</time>
      </trkpt>
      <trkpt lat="42.46564" lon="2.55149">
        <ele>1187.785889</ele>
        <time>2008-01-22T00:00:00Z</time>
      </trkpt>
      <trkpt lat="42.46503" lon="2.552">
        <ele>1202.719971</ele>
        <time>2008-01-22T00:00:00Z</time>
      </trkpt>
      <trkpt lat="42.46466" lon="2.5528">
        <ele>1211.785522</ele>
        <time>2008-01-22T00:00:00Z</time>
      </trkpt>
      <trkpt lat="42.46403" lon="2.55353">
        <ele>1219.317993</ele>
        <time>2008-01-22T00:00:00Z</time>
      </trkpt>
      <trkpt lat="42.46398" lon="2.55379">
        <ele>1220.029419</ele>
        <time>2008-01-22T00:00:00Z</time>
      </trkpt>
      <trkpt lat="42.46368" lon="2.55428">
        <ele>1222.661255</ele>
        <time>2008-01-22T00:00:00Z</time>
      </trkpt>
      <trkpt lat="42.46358" lon="2.55419">
        <ele>1223.271362</ele>
        <time>2008-01-22T00:00:00Z</time>
      </trkpt>
      <trkpt lat="42.46361" lon="2.55394">
        <ele>1224.42334</ele>
        <time>2008-01-22T00:00:00Z</time>
      </trkpt>
      <trkpt lat="42.46371" lon="2.55364">
        <ele>1224.165527</ele>
        <time>2008-01-22T00:00:00Z</time>
      </trkpt>
      <trkpt lat="42.46372" lon="2.55325">
        <ele>1226.559326</ele>
        <time>2008-01-22T00:00:00Z</time>
      </trkpt>
      <trkpt lat="42.46367" lon="2.55311">
        <ele>1228.697998</ele>
        <time>2008-01-22T00:00:00Z</time>
      </trkpt>
      <trkpt lat="42.46357" lon="2.55321">
        <ele>1230.176636</ele>
        <time>2008-01-22T00:00:00Z</time>
      </trkpt>
      <trkpt lat="42.46362" lon="2.55345">
        <ele>1227.305054</ele>
        <time>2008-01-22T00:00:00Z</time>
      </trkpt>
      <trkpt lat="42.46338" lon="2.55374">
        <ele>1228.125244</ele>
        <time>2008-01-22T00:00:00Z</time>
      </trkpt>
      <trkpt lat="42.46321" lon="2.55375">
        <ele>1229.669189</ele>
        <time>2008-01-22T00:00:00Z</time>
      </trkpt>
      <trkpt lat="42.46303" lon="2.55366">
        <ele>1231.055908</ele>
        <time>2008-01-22T00:00:00Z</time>
      </trkpt>
      <trkpt lat="42.46281" lon="2.55343">
        <ele>1232.863037</ele>
        <time>2008-01-22T00:00:00Z</time>
      </trkpt>
      <trkpt lat="42.46272" lon="2.5531">
        <ele>1237.899292</ele>
        <time>2008-01-22T00:00:00Z</time>
      </trkpt>
      <trkpt lat="42.46257" lon="2.55291">
        <ele>1240.160034</ele>
        <time>2008-01-22T00:00:00Z</time>
      </trkpt>
      <trkpt lat="42.46236" lon="2.55278">
        <ele>1239.658813</ele>
        <time>2008-01-22T00:00:00Z</time>
      </trkpt>
      <trkpt lat="42.46218" lon="2.55254">
        <ele>1245.413086</ele>
        <time>2008-01-22T00:00:00Z</time>
      </trkpt>
      <trkpt lat="42.46201" lon="2.55243">
        <ele>1247.225708</ele>
        <time>2008-01-22T00:00:00Z</time>
      </trkpt>
      <trkpt lat="42.46172" lon="2.55239">
        <ele>1244.393921</ele>
        <time>2008-01-22T00:00:00Z</time>
      </trkpt>
      <trkpt lat="42.46152" lon="2.55228">
        <ele>1244.923584</ele>
        <time>2008-01-22T00:00:00Z</time>
      </trkpt>
      <trkpt lat="42.46129" lon="2.55184">
        <ele>1254.550293</ele>
        <time>2008-01-22T00:00:00Z</time>
      </trkpt>
      <trkpt lat="42.46066" lon="2.55139">
        <ele>1253.730591</ele>
        <time>2008-01-22T00:00:00Z</time>
      </trkpt>
      <trkpt lat="42.46046" lon="2.5509">
        <ele>1265.178101</ele>
        <time>2008-01-22T00:00:00Z</time>
      </trkpt>
      <trkpt lat="42.46012" lon="2.55045">
        <ele>1271.137329</ele>
        <time>2008-01-22T00:00:00Z</time>
      </trkpt>
      <trkpt lat="42.45973" lon="2.55005">
        <ele>1276.849854</ele>
        <time>2008-01-22T00:00:00Z</time>
      </trkpt>
      <trkpt lat="42.45923" lon="2.54982">
        <ele>1276.319824</ele>
        <time>2008-01-22T00:00:00Z</time>
      </trkpt>
      <trkpt lat="42.45872" lon="2.54944">
        <ele>1278.079834</ele>
        <time>2008-01-22T00:00:00Z</time>
      </trkpt>
      <trkpt lat="42.45836" lon="2.54894">
        <ele>1286.731201</ele>
        <time>2008-01-22T00:00:00Z</time>
      </trkpt>
      <trkpt lat="42.45734" lon="2.54838">
        <ele>1297.432495</ele>
        <time>2008-01-22T00:00:00Z</time>
      </trkpt>
      <trkpt lat="42.45704" lon="2.54835">
        <ele>1295.116211</ele>
        <time>2008-01-22T00:00:00Z</time>
      </trkpt>
      <trkpt lat="42.45701" lon="2.54823">
        <ele>1298.981689</ele>
        <time>2008-01-22T00:00:00Z</time>
      </trkpt>
      <trkpt lat="42.45708" lon="2.54815">
        <ele>1302.874023</ele>
        <time>2008-01-22T00:00:00Z</time>
      </trkpt>
      <trkpt lat="42.45737" lon="2.54822">
        <ele>1303.347778</ele>
        <time>2008-01-22T00:00:00Z</time>
      </trkpt>
      <trkpt lat="42.45779" lon="2.54827">
        <ele>1304.287476</ele>
        <time>2008-01-22T00:00:00Z</time>
      </trkpt>
      <trkpt lat="42.45856" lon="2.54816">
        <ele>1313.613403</ele>
        <time>2008-01-22T00:00:00Z</time>
      </trkpt>
      <trkpt lat="42.45957" lon="2.54844">
        <ele>1321.687744</ele>
        <time>2008-01-22T00:00:00Z</time>
      </trkpt>
      <trkpt lat="42.46068" lon="2.54857">
        <ele>1332.273315</ele>
        <time>2008-01-22T00:00:00Z</time>
      </trkpt>
      <trkpt lat="42.46141" lon="2.54852">
        <ele>1338.443481</ele>
        <time>2008-01-22T00:00:00Z</time>
      </trkpt>
      <trkpt lat="42.46156" lon="2.54837">
        <ele>1340.467773</ele>
        <time>2008-01-22T00:00:00Z</time>
      </trkpt>
      <trkpt lat="42.46162" lon="2.54819">
        <ele>1342.588013</ele>
        <time>2008-01-22T00:00:00Z</time>
      </trkpt>
      <trkpt lat="42.4616" lon="2.54802">
        <ele>1344.409424</ele>
        <time>2008-01-22T00:00:00Z</time>
      </trkpt>
      <trkpt lat="42.46154" lon="2.54781">
        <ele>1347.374146</ele>
        <time>2008-01-22T00:00:00Z</time>
      </trkpt>
      <trkpt lat="42.46155" lon="2.54757">
        <ele>1350.045654</ele>
        <time>2008-01-22T00:00:00Z</time>
      </trkpt>
      <trkpt lat="42.46178" lon="2.54686">
        <ele>1351.698364</ele>
        <time>2008-01-22T00:00:00Z</time>
      </trkpt>
      <trkpt lat="42.46184" lon="2.54649">
        <ele>1353.128052</ele>
        <time>2008-01-22T00:00:00Z</time>
      </trkpt>
      <trkpt lat="42.46175" lon="2.54582">
        <ele>1361.024292</ele>
        <time>2008-01-22T00:00:00Z</time>
      </trkpt>
      <trkpt lat="42.46173" lon="2.54473">
        <ele>1366.899536</ele>
        <time>2008-01-22T00:00:00Z</time>
      </trkpt>
      <trkpt lat="42.46178" lon="2.5444">
        <ele>1367.640625</ele>
        <time>2008-01-22T00:00:00Z</time>
      </trkpt>
      <trkpt lat="42.46171" lon="2.54399">
        <ele>1374.786987</ele>
        <time>2008-01-22T00:00:00Z</time>
      </trkpt>
      <trkpt lat="42.46174" lon="2.54351">
        <ele>1382.306519</ele>
        <time>2008-01-22T00:00:00Z</time>
      </trkpt>
      <trkpt lat="42.46189" lon="2.54296">
        <ele>1387.619019</ele>
        <time>2008-01-22T00:00:00Z</time>
      </trkpt>
      <trkpt lat="42.46227" lon="2.54216">
        <ele>1388.613037</ele>
        <time>2008-01-22T00:00:00Z</time>
      </trkpt>
      <trkpt lat="42.46236" lon="2.54183">
        <ele>1390.724854</ele>
        <time>2008-01-22T00:00:00Z</time>
      </trkpt>
      <trkpt lat="42.46249" lon="2.54125">
        <ele>1395.650757</ele>
        <time>2008-01-22T00:00:00Z</time>
      </trkpt>
      <trkpt lat="42.46258" lon="2.54067">
        <ele>1404.406128</ele>
        <time>2008-01-22T00:00:00Z</time>
      </trkpt>
      <trkpt lat="42.4628" lon="2.53997">
        <ele>1414.905029</ele>
        <time>2008-01-22T00:00:00Z</time>
      </trkpt>
      <trkpt lat="42.46291" lon="2.53984">
        <ele>1414.573486</ele>
        <time>2008-01-22T00:00:00Z</time>
      </trkpt>
      <trkpt lat="42.46311" lon="2.53978">
        <ele>1408.17627</ele>
        <time>2008-01-22T00:00:00Z</time>
      </trkpt>
      <trkpt lat="42.46318" lon="2.53968">
        <ele>1408.818481</ele>
        <time>2008-01-22T00:00:00Z</time>
      </trkpt>
      <trkpt lat="42.46331" lon="2.5392">
        <ele>1424.178101</ele>
        <time>2008-01-22T00:00:00Z</time>
      </trkpt>
      <trkpt lat="42.46381" lon="2.53895">
        <ele>1421.468018</ele>
        <time>2008-01-22T00:00:00Z</time>
      </trkpt>
      <trkpt lat="42.46416" lon="2.53857">
        <ele>1424.652588</ele>
        <time>2008-01-22T00:00:00Z</time>
      </trkpt>
      <trkpt lat="42.46432" lon="2.53831">
        <ele>1423.902344</ele>
        <time>2008-01-22T00:00:00Z</time>
      </trkpt>
      <trkpt lat="42.46447" lon="2.53786">
        <ele>1427.00354</ele>
        <time>2008-01-22T00:00:00Z</time>
      </trkpt>
      <trkpt lat="42.46469" lon="2.53677">
        <ele>1431.370361</ele>
        <time>2008-01-22T00:00:00Z</time>
      </trkpt>
      <trkpt lat="42.4647" lon="2.53633">
        <ele>1434.098511</ele>
        <time>2008-01-22T00:00:00Z</time>
      </trkpt>
      <trkpt lat="42.46457" lon="2.53528">
        <ele>1442.187988</ele>
        <time>2008-01-22T00:00:00Z</time>
      </trkpt>
      <trkpt lat="42.46447" lon="2.535">
        <ele>1443.56958</ele>
        <time>2008-01-22T00:00:00Z</time>
      </trkpt>
      <trkpt lat="42.46377" lon="2.53416">
        <ele>1458.674072</ele>
        <time>2008-01-22T00:00:00Z</time>
      </trkpt>
      <trkpt lat="42.4635" lon="2.53366">
        <ele>1457.646606</ele>
        <time>2008-01-22T00:00:00Z</time>
      </trkpt>
      <trkpt lat="42.46317" lon="2.53338">
        <ele>1467.875</ele>
        <time>2008-01-22T00:00:00Z</time>
      </trkpt>
      <trkpt lat="42.46292" lon="2.53313">
        <ele>1473.921753</ele>
        <time>2008-01-22T00:00:00Z</time>
      </trkpt>
      <trkpt lat="42.46285" lon="2.53288">
        <ele>1473.810669</ele>
        <time>2008-01-22T00:00:00Z</time>
      </trkpt>
      <trkpt lat="42.46287" lon="2.5324">
        <ele>1469.399048</ele>
        <time>2008-01-22T00:00:00Z</time>
      </trkpt>
      <trkpt lat="42.46282" lon="2.5316">
        <ele>1476.498291</ele>
        <time>2008-01-22T00:00:00Z</time>
      </trkpt>
      <trkpt lat="42.46267" lon="2.52973">
        <ele>1467.973267</ele>
        <time>2008-01-22T00:00:00Z</time>
      </trkpt>
      <trkpt lat="42.46258" lon="2.52898">
        <ele>1464.623901</ele>
        <time>2008-01-22T00:00:00Z</time>
      </trkpt>
      <trkpt lat="42.46248" lon="2.52717">
        <ele>1450.265259</ele>
        <time>2008-01-22T00:00:00Z</time>
      </trkpt>
      <trkpt lat="42.46254" lon="2.52663">
        <ele>1448.437012</ele>
        <time>2008-01-22T00:00:00Z</time>
      </trkpt>
      <trkpt lat="42.4627" lon="2.5261">
        <ele>1444.319946</ele>
        <time>2008-01-22T00:00:00Z</time>
      </trkpt>
      <trkpt lat="42.46308" lon="2.525">
        <ele>1431.54834</ele>
        <time>2008-01-22T00:00:00Z</time>
      </trkpt>
      <trkpt lat="42.46299" lon="2.52431">
        <ele>1440.788208</ele>
        <time>2008-01-22T00:00:00Z</time>
      </trkpt>
      <trkpt lat="42.46328" lon="2.52436">
        <ele>1431.227173</ele>
        <time>2008-01-22T00:00:00Z</time>
      </trkpt>
      <trkpt lat="42.46344" lon="2.52433">
        <ele>1431.631592</ele>
        <time>2008-01-22T00:00:00Z</time>
      </trkpt>
      <trkpt lat="42.46367" lon="2.52439">
        <ele>1430.631226</ele>
        <time>2008-01-22T00:00:00Z</time>
      </trkpt>
      <trkpt lat="42.46393" lon="2.52466">
        <ele>1428.479126</ele>
        <time>2008-01-22T00:00:00Z</time>
      </trkpt>
      <trkpt lat="42.46555" lon="2.5259">
        <ele>1423.883423</ele>
        <time>2008-01-22T00:00:00Z</time>
      </trkpt>
      <trkpt lat="42.46574" lon="2.52593">
        <ele>1422.446777</ele>
        <time>2008-01-22T00:00:00Z</time>
      </trkpt>
      <trkpt lat="42.46589" lon="2.52582">
        <ele>1423.698242</ele>
        <time>2008-01-22T00:00:00Z</time>
      </trkpt>
      <trkpt lat="42.46605" lon="2.52556">
        <ele>1423.807983</ele>
        <time>2008-01-22T00:00:00Z</time>
      </trkpt>
      <trkpt lat="42.46657" lon="2.52423">
        <ele>1418.038696</ele>
        <time>2008-01-22T00:00:00Z</time>
      </trkpt>
      <trkpt lat="42.46657" lon="2.52388">
        <ele>1424.347656</ele>
        <time>2008-01-22T00:00:00Z</time>
      </trkpt>
      <trkpt lat="42.46665" lon="2.52362">
        <ele>1426.06897</ele>
        <time>2008-01-22T00:00:00Z</time>
      </trkpt>
      <trkpt lat="42.46685" lon="2.52356">
        <ele>1420.338623</ele>
        <time>2008-01-22T00:00:00Z</time>
      </trkpt>
      <trkpt lat="42.4679" lon="2.5239">
        <ele>1411.754517</ele>
        <time>2008-01-22T00:00:00Z</time>
      </trkpt>
      <trkpt lat="42.46866" lon="2.52439">
        <ele>1401.588135</ele>
        <time>2008-01-22T00:00:00Z</time>
      </trkpt>
      <trkpt lat="42.46973" lon="2.52448">
        <ele>1394.810791</ele>
        <time>2008-01-22T00:00:00Z</time>
      </trkpt>
      <trkpt lat="42.47012" lon="2.52415">
        <ele>1392.015259</ele>
        <time>2008-01-22T00:00:00Z</time>
      </trkpt>
      <trkpt lat="42.47023" lon="2.52352">
        <ele>1388.549316</ele>
        <time>2008-01-22T00:00:00Z</time>
      </trkpt>
      <trkpt lat="42.47019" lon="2.52276">
        <ele>1382.752075</ele>
        <time>2008-01-22T00:00:00Z</time>
      </trkpt>
      <trkpt lat="42.47023" lon="2.52235">
        <ele>1373.606323</ele>
        <time>2008-01-22T00:00:00Z</time>
      </trkpt>
      <trkpt lat="42.47077" lon="2.523">
        <ele>1356.758423</ele>
        <time>2008-01-22T00:00:00Z</time>
      </trkpt>
      <trkpt lat="42.47127" lon="2.52344">
        <ele>1351.670654</ele>
        <time>2008-01-22T00:00:00Z</time>
      </trkpt>
      <trkpt lat="42.47185" lon="2.52381">
        <ele>1328.228394</ele>
        <time>2008-01-22T00:00:00Z</time>
      </trkpt>
      <trkpt lat="42.47202" lon="2.52401">
        <ele>1322.545776</ele>
        <time>2008-01-22T00:00:00Z</time>
      </trkpt>
      <trkpt lat="42.47223" lon="2.52454">
        <ele>1316.729858</ele>
        <time>2008-01-22T00:00:00Z</time>
      </trkpt>
      <trkpt lat="42.47298" lon="2.52579">
        <ele>1293.999023</ele>
        <time>2008-01-22T00:00:00Z</time>
      </trkpt>
      <trkpt lat="42.47321" lon="2.52631">
        <ele>1284.696533</ele>
        <time>2008-01-22T00:00:00Z</time>
      </trkpt>
      <trkpt lat="42.47381" lon="2.52761">
        <ele>1261.878784</ele>
        <time>2008-01-22T00:00:00Z</time>
      </trkpt>
      <trkpt lat="42.47367" lon="2.52787">
        <ele>1258.489258</ele>
        <time>2008-01-22T00:00:00Z</time>
      </trkpt>
      <trkpt lat="42.47381" lon="2.52797">
        <ele>1253.581543</ele>
        <time>2008-01-22T00:00:00Z</time>
      </trkpt>
      <trkpt lat="42.47409" lon="2.52799">
        <ele>1248.258789</ele>
        <time>2008-01-22T00:00:00Z</time>
      </trkpt>
      <trkpt lat="42.47435" lon="2.52788">
        <ele>1244.884399</ele>
        <time>2008-01-22T00:00:00Z</time>
      </trkpt>
      <trkpt lat="42.47456" lon="2.5279">
        <ele>1240.626465</ele>
        <time>2008-01-22T00:00:00Z</time>
      </trkpt>
      <trkpt lat="42.47511" lon="2.528">
        <ele>1224.07312</ele>
        <time>2008-01-22T00:00:00Z</time>
      </trkpt>
      <trkpt lat="42.47532" lon="2.5279">
        <ele>1218.422974</ele>
        <time>2008-01-22T00:00:00Z</time>
      </trkpt>
      <trkpt lat="42.47552" lon="2.52797">
        <ele>1212.962402</ele>
        <time>2008-01-22T00:00:00Z</time>
      </trkpt>
      <trkpt lat="42.47506" lon="2.52878">
        <ele>1202.328491</ele>
        <time>2008-01-22T00:00:00Z</time>
      </trkpt>
      <trkpt lat="42.47527" lon="2.52881">
        <ele>1196.634033</ele>
        <time>2008-01-22T00:00:00Z</time>
      </trkpt>
      <trkpt lat="42.47571" lon="2.52847">
        <ele>1197.018799</ele>
        <time>2008-01-22T00:00:00Z</time>
      </trkpt>
      <trkpt lat="42.47565" lon="2.52896">
        <ele>1180.956177</ele>
        <time>2008-01-22T00:00:00Z</time>
      </trkpt>
      <trkpt lat="42.47481" lon="2.52964">
        <ele>1167.329468</ele>
        <time>2008-01-22T00:00:00Z</time>
      </trkpt>
      <trkpt lat="42.47446" lon="2.53007">
        <ele>1150.7854</ele>
        <time>2008-01-22T00:00:00Z</time>
      </trkpt>
      <trkpt lat="42.47381" lon="2.53043">
        <ele>1146.801392</ele>
        <time>2008-01-22T00:00:00Z</time>
      </trkpt>
      <trkpt lat="42.47371" lon="2.53081">
        <ele>1136.795044</ele>
        <time>2008-01-22T00:00:00Z</time>
      </trkpt>
      <trkpt lat="42.47373" lon="2.53126">
        <ele>1123.276611</ele>
        <time>2008-01-22T00:00:00Z</time>
      </trkpt>
      <trkpt lat="42.47356" lon="2.53183">
        <ele>1118.20105</ele>
        <time>2008-01-22T00:00:00Z</time>
      </trkpt>
      <trkpt lat="42.47336" lon="2.53219">
        <ele>1115.166748</ele>
        <time>2008-01-22T00:00:00Z</time>
      </trkpt>
      <trkpt lat="42.47311" lon="2.53225">
        <ele>1124.198364</ele>
        <time>2008-01-22T00:00:00Z</time>
      </trkpt>
      <trkpt lat="42.47321" lon="2.53279">
        <ele>1107.918945</ele>
        <time>2008-01-22T00:00:00Z</time>
      </trkpt>
      <trkpt lat="42.47321" lon="2.53329">
        <ele>1097.129272</ele>
        <time>2008-01-22T00:00:00Z</time>
      </trkpt>
      <trkpt lat="42.47281" lon="2.53532">
        <ele>1070.667603</ele>
        <time>2008-01-22T00:00:00Z</time>
      </trkpt>
      <trkpt lat="42.47263" lon="2.53741">
        <ele>1040.271362</ele>
        <time>2008-01-22T00:00:00Z</time>
      </trkpt>
      <trkpt lat="42.47227" lon="2.53764">
        <ele>1028.991699</ele>
        <time>2008-01-22T00:00:00Z</time>
      </trkpt>
      <trkpt lat="42.47263" lon="2.53787">
        <ele>1023.345093</ele>
        <time>2008-01-22T00:00:00Z</time>
      </trkpt>
      <trkpt lat="42.47235" lon="2.53795">
        <ele>1017.426208</ele>
        <time>2008-01-22T00:00:00Z</time>
      </trkpt>
      <trkpt lat="42.47167" lon="2.53795">
        <ele>1024.006226</ele>
        <time>2008-01-22T00:00:00Z</time>
      </trkpt>
      <trkpt lat="42.47273" lon="2.53923">
        <ele>991.084473</ele>
        <time>2008-01-22T00:00:00Z</time>
      </trkpt>
      <trkpt lat="42.47304" lon="2.53988">
        <ele>976.265564</ele>
        <time>2008-01-22T00:00:00Z</time>
      </trkpt>
      <trkpt lat="42.47311" lon="2.54022">
        <ele>973.550964</ele>
        <time>2008-01-22T00:00:00Z</time>
      </trkpt>
      <trkpt lat="42.47304" lon="2.54045">
        <ele>975.05365</ele>
        <time>2008-01-22T00:00:00Z</time>
      </trkpt>
      <trkpt lat="42.47327" lon="2.54137">
        <ele>950.250793</ele>
        <time>2008-01-22T00:00:00Z</time>
      </trkpt>
      <trkpt lat="42.47327" lon="2.54254">
        <ele>928.762939</ele>
        <time>2008-01-22T00:00:00Z</time>
      </trkpt>
      <trkpt lat="42.47321" lon="2.54306">
        <ele>924.806274</ele>
        <time>2008-01-22T00:00:00Z</time>
      </trkpt>
      <trkpt lat="42.4731" lon="2.54374">
        <ele>917.626587</ele>
        <time>2008-01-22T00:00:00Z</time>
      </trkpt>
      <trkpt lat="42.47327" lon="2.54381">
        <ele>916.423157</ele>
        <time>2008-01-22T00:00:00Z</time>
      </trkpt>
      <trkpt lat="42.47333" lon="2.5441">
        <ele>913.082947</ele>
        <time>2008-01-22T00:00:00Z</time>
      </trkpt>
      <trkpt lat="42.47363" lon="2.54434">
        <ele>915.730347</ele>
        <time>2008-01-22T00:00:00Z</time>
      </trkpt>
      <trkpt lat="42.47377" lon="2.5446">
        <ele>914.681885</ele>
        <time>2008-01-22T00:00:00Z</time>
      </trkpt>
      <trkpt lat="42.47398" lon="2.5449">
        <ele>916.168884</ele>
        <time>2008-01-22T00:00:00Z</time>
      </trkpt>
      <trkpt lat="42.47409" lon="2.54603">
        <ele>903.026611</ele>
        <time>2008-01-22T00:00:00Z</time>
      </trkpt>
      <trkpt lat="42.47423" lon="2.54638">
        <ele>900.403259</ele>
        <time>2008-01-22T00:00:00Z</time>
      </trkpt>
      <trkpt lat="42.47474" lon="2.54723">
        <ele>901.191895</ele>
        <time>2008-01-22T00:00:00Z</time>
      </trkpt>
      <trkpt lat="42.47483" lon="2.54753">
        <ele>898.408997</ele>
        <time>2008-01-22T00:00:00Z</time>
      </trkpt>
      <trkpt lat="42.47493" lon="2.54781">
        <ele>895.906738</ele>
        <time>2008-01-22T00:00:00Z</time>
      </trkpt>
      <trkpt lat="42.47507" lon="2.54811">
        <ele>894.294739</ele>
        <time>2008-01-22T00:00:00Z</time>
      </trkpt>
      <trkpt lat="42.4752" lon="2.54867">
        <ele>882.932373</ele>
        <time>2008-01-22T00:00:00Z</time>
      </trkpt>
      <trkpt lat="42.47538" lon="2.54897">
        <ele>880.546509</ele>
        <time>2008-01-22T00:00:00Z</time>
      </trkpt>
      <trkpt lat="42.47557" lon="2.54916">
        <ele>880.415833</ele>
        <time>2008-01-22T00:00:00Z</time>
      </trkpt>
      <trkpt lat="42.47577" lon="2.54925">
        <ele>881.173889</ele>
        <time>2008-01-22T00:00:00Z</time>
      </trkpt>
      <trkpt lat="42.476" lon="2.54931">
        <ele>882.882874</ele>
        <time>2008-01-22T00:00:00Z</time>
      </trkpt>
      <trkpt lat="42.47623" lon="2.54959">
        <ele>878.131897</ele>
        <time>2008-01-22T00:00:00Z</time>
      </trkpt>
      <trkpt lat="42.47648" lon="2.55002">
        <ele>875.280334</ele>
        <time>2008-01-22T00:00:00Z</time>
      </trkpt>
      <trkpt lat="42.47666" lon="2.55078">
        <ele>866.677551</ele>
        <time>2008-01-22T00:00:00Z</time>
      </trkpt>
      <trkpt lat="42.47691" lon="2.55138">
        <ele>858.740417</ele>
        <time>2008-01-22T00:00:00Z</time>
      </trkpt>
      <trkpt lat="42.47691" lon="2.55146">
        <ele>856.617554</ele>
        <time>2008-01-22T00:00:00Z</time>
      </trkpt>
      <trkpt lat="42.47682" lon="2.55146">
        <ele>854.764709</ele>
        <time>2008-01-22T00:00:00Z</time>
      </trkpt>
      <trkpt lat="42.47668" lon="2.55114">
        <ele>858.113525</ele>
        <time>2008-01-22T00:00:00Z</time>
      </trkpt>
      <trkpt lat="42.47653" lon="2.55102">
        <ele>857.109741</ele>
        <time>2008-01-22T00:00:00Z</time>
      </trkpt>
      <trkpt lat="42.47642" lon="2.55107">
        <ele>854.934937</ele>
        <time>2008-01-22T00:00:00Z</time>
      </trkpt>
      <trkpt lat="42.47609" lon="2.55149">
        <ele>854.040405</ele>
        <time>2008-01-22T00:00:00Z</time>
      </trkpt>
      <trkpt lat="42.47581" lon="2.55217">
        <ele>866.126404</ele>
        <time>2008-01-22T00:00:00Z</time>
      </trkpt>
      <trkpt lat="42.47584" lon="2.55309">
        <ele>869.972412</ele>
        <time>2008-01-22T00:00:00Z</time>
      </trkpt>
      <trkpt lat="42.47606" lon="2.55359">
        <ele>862.586548</ele>
        <time>2008-01-22T00:00:00Z</time>
      </trkpt>
      <trkpt lat="42.47615" lon="2.55418">
        <ele>869.804138</ele>
        <time>2008-01-22T00:00:00Z</time>
      </trkpt>
      <trkpt lat="42.4765" lon="2.55458">
        <ele>859.168762</ele>
        <time>2008-01-22T00:00:00Z</time>
      </trkpt>
      <trkpt lat="42.47665" lon="2.55523">
        <ele>856.762878</ele>
        <time>2008-01-22T00:00:00Z</time>
      </trkpt>
      <trkpt lat="42.47659" lon="2.55592">
        <ele>859.968872</ele>
        <time>2008-01-22T00:00:00Z</time>
      </trkpt>
      <trkpt lat="42.47669" lon="2.55664">
        <ele>857.454346</ele>
        <time>2008-01-22T00:00:00Z</time>
      </trkpt>
      <trkpt lat="42.4768" lon="2.55751">
        <ele>859.539551</ele>
        <time>2008-01-22T00:00:00Z</time>
      </trkpt>
      <trkpt lat="42.47682" lon="2.55788">
        <ele>864.889099</ele>
        <time>2008-01-22T00:00:00Z</time>
      </trkpt>
      <trkpt lat="42.47736" lon="2.55864">
        <ele>865.417725</ele>
        <time>2008-01-22T00:00:00Z</time>
      </trkpt>
      <trkpt lat="42.47757" lon="2.55864">
        <ele>851.750854</ele>
        <time>2008-01-22T00:00:00Z</time>
      </trkpt>
      <trkpt lat="42.47777" lon="2.55929">
        <ele>863.516663</ele>
        <time>2008-01-22T00:00:00Z</time>
      </trkpt>
      <trkpt lat="42.47807" lon="2.55986">
        <ele>864.646973</ele>
        <time>2008-01-22T00:00:00Z</time>
      </trkpt>
      <trkpt lat="42.47833" lon="2.56007">
        <ele>851.245972</ele>
        <time>2008-01-22T00:00:00Z</time>
      </trkpt>
      <trkpt lat="42.47852" lon="2.56076">
        <ele>865.745728</ele>
        <time>2008-01-22T00:00:00Z</time>
      </trkpt>
      <trkpt lat="42.47885" lon="2.56124">
        <ele>862.306152</ele>
        <time>2008-01-22T00:00:00Z</time>
      </trkpt>
      <trkpt lat="42.47924" lon="2.56151">
        <ele>855.06311</ele>
        <time>2008-01-22T00:00:00Z</time>
      </trkpt>
      <trkpt lat="42.47964" lon="2.56156">
        <ele>845.593994</ele>
        <time>2008-01-22T00:00:00Z</time>
      </trkpt>
      <trkpt lat="42.47984" lon="2.56171">
        <ele>844.002991</ele>
        <time>2008-01-22T00:00:00Z</time>
      </trkpt>
      <trkpt lat="42.48038" lon="2.56261">
        <ele>843.000427</ele>
        <time>2008-01-22T00:00:00Z</time>
      </trkpt>
      <trkpt lat="42.48039" lon="2.56286">
        <ele>843.678345</ele>
        <time>2008-01-22T00:00:00Z</time>
      </trkpt>
      <trkpt lat="42.48034" lon="2.56301">
        <ele>844.020691</ele>
        <time>2008-01-22T00:00:00Z</time>
      </trkpt>
      <trkpt lat="42.47987" lon="2.56362">
        <ele>851.227783</ele>
        <time>2008-01-22T00:00:00Z</time>
      </trkpt>
      <trkpt lat="42.47941" lon="2.56435">
        <ele>854.245178</ele>
        <time>2008-01-22T00:00:00Z</time>
      </trkpt>
      <trkpt lat="42.47901" lon="2.56537">
        <ele>852.845459</ele>
        <time>2008-01-22T00:00:00Z</time>
      </trkpt>
      <trkpt lat="42.47891" lon="2.56537">
        <ele>855.037781</ele>
        <time>2008-01-22T00:00:00Z</time>
      </trkpt>
      <trkpt lat="42.47881" lon="2.5656">
        <ele>854.803223</ele>
        <time>2008-01-22T00:00:00Z</time>
      </trkpt>
      <trkpt lat="42.47866" lon="2.56578">
        <ele>854.175476</ele>
        <time>2008-01-22T00:00:00Z</time>
      </trkpt>
      <trkpt lat="42.47857" lon="2.56573">
        <ele>855.220032</ele>
        <time>2008-01-22T00:00:00Z</time>
      </trkpt>
      <trkpt lat="42.47863" lon="2.56557">
        <ele>856.893005</ele>
        <time>2008-01-22T00:00:00Z</time>
      </trkpt>
      <trkpt lat="42.47878" lon="2.56513">
        <ele>859.923706</ele>
        <time>2008-01-22T00:00:00Z</time>
      </trkpt>
      <trkpt lat="42.4788" lon="2.56468">
        <ele>863.253845</ele>
        <time>2008-01-22T00:00:00Z</time>
      </trkpt>
      <trkpt lat="42.47905" lon="2.56422">
        <ele>862.799805</ele>
        <time>2008-01-22T00:00:00Z</time>
      </trkpt>
      <trkpt lat="42.47915" lon="2.5639">
        <ele>864.026917</ele>
        <time>2008-01-22T00:00:00Z</time>
      </trkpt>
      <trkpt lat="42.47944" lon="2.56346">
        <ele>862.62793</ele>
        <time>2008-01-22T00:00:00Z</time>
      </trkpt>
      <trkpt lat="42.47957" lon="2.56283">
        <ele>863.833191</ele>
        <time>2008-01-22T00:00:00Z</time>
      </trkpt>
      <trkpt lat="42.47942" lon="2.56272">
        <ele>867.428833</ele>
        <time>2008-01-22T00:00:00Z</time>
      </trkpt>
      <trkpt lat="42.47938" lon="2.56309">
        <ele>866.579895</ele>
        <time>2008-01-22T00:00:00Z</time>
      </trkpt>
      <trkpt lat="42.47915" lon="2.56333">
        <ele>869.829285</ele>
        <time>2008-01-22T00:00:00Z</time>
      </trkpt>
      <trkpt lat="42.47894" lon="2.56369">
        <ele>870.644165</ele>
        <time>2008-01-22T00:00:00Z</time>
      </trkpt>
      <trkpt lat="42.47825" lon="2.56419">
        <ele>881.753296</ele>
        <time>2008-01-22T00:00:00Z</time>
      </trkpt>
      <trkpt lat="42.47782" lon="2.56479">
        <ele>882.36084</ele>
        <time>2008-01-22T00:00:00Z</time>
      </trkpt>
      <trkpt lat="42.47753" lon="2.565">
        <ele>884.981079</ele>
        <time>2008-01-22T00:00:00Z</time>
      </trkpt>
      <trkpt lat="42.47644" lon="2.5651">
        <ele>903.430481</ele>
        <time>2008-01-22T00:00:00Z</time>
      </trkpt>
      <trkpt lat="42.47605" lon="2.56528">
        <ele>905.801147</ele>
        <time>2008-01-22T00:00:00Z</time>
      </trkpt>
      <trkpt lat="42.47583" lon="2.56532">
        <ele>907.276062</ele>
        <time>2008-01-22T00:00:00Z</time>
      </trkpt>
      <trkpt lat="42.4756" lon="2.56526">
        <ele>912.19989</ele>
        <time>2008-01-22T00:00:00Z</time>
      </trkpt>
      <trkpt lat="42.47539" lon="2.56545">
        <ele>909.596741</ele>
        <time>2008-01-22T00:00:00Z</time>
      </trkpt>
      <trkpt lat="42.47499" lon="2.56569">
        <ele>908.003723</ele>
        <time>2008-01-22T00:00:00Z</time>
      </trkpt>
      <trkpt lat="42.47467" lon="2.56575">
        <ele>909.339172</ele>
        <time>2008-01-22T00:00:00Z</time>
      </trkpt>
      <trkpt lat="42.47424" lon="2.56551">
        <ele>912.549072</ele>
        <time>2008-01-22T00:00:00Z</time>
      </trkpt>
      <trkpt lat="42.47402" lon="2.56534">
        <ele>912.798828</ele>
        <time>2008-01-22T00:00:00Z</time>
      </trkpt>
      <trkpt lat="42.47347" lon="2.56488">
        <ele>914.548401</ele>
        <time>2008-01-22T00:00:00Z</time>
      </trkpt>
      <trkpt lat="42.47318" lon="2.5644">
        <ele>922.126709</ele>
        <time>2008-01-22T00:00:00Z</time>
      </trkpt>
      <trkpt lat="42.47275" lon="2.56442">
        <ele>918.362305</ele>
        <time>2008-01-22T00:00:00Z</time>
      </trkpt>
      <trkpt lat="42.47261" lon="2.56448">
        <ele>916.912659</ele>
        <time>2008-01-22T00:00:00Z</time>
      </trkpt>
      <trkpt lat="42.47244" lon="2.56485">
        <ele>911.240967</ele>
        <time>2008-01-22T00:00:00Z</time>
      </trkpt>
      <trkpt lat="42.47238" lon="2.56505">
        <ele>908.286621</ele>
        <time>2008-01-22T00:00:00Z</time>
      </trkpt>
      <trkpt lat="42.47233" lon="2.56517">
        <ele>906.301025</ele>
        <time>2008-01-22T00:00:00Z</time>
      </trkpt>
      <trkpt lat="42.47216" lon="2.56515">
        <ele>909.739197</ele>
        <time>2008-01-22T00:00:00Z</time>
      </trkpt>
      <trkpt lat="42.47198" lon="2.56541">
        <ele>907.698975</ele>
        <time>2008-01-22T00:00:00Z</time>
      </trkpt>
      <trkpt lat="42.47183" lon="2.56591">
        <ele>903.914795</ele>
        <time>2008-01-22T00:00:00Z</time>
      </trkpt>
      <trkpt lat="42.47177" lon="2.56629">
        <ele>900.155762</ele>
        <time>2008-01-22T00:00:00Z</time>
      </trkpt>
      <trkpt lat="42.47135" lon="2.5672">
        <ele>892.307556</ele>
        <time>2008-01-22T00:00:00Z</time>
      </trkpt>
      <trkpt lat="42.47102" lon="2.56778">
        <ele>886.473206</ele>
        <time>2008-01-22T00:00:00Z</time>
      </trkpt>
      <trkpt lat="42.47069" lon="2.56829">
        <ele>883.088135</ele>
        <time>2008-01-22T00:00:00Z</time>
      </trkpt>
      <trkpt lat="42.47048" lon="2.56853">
        <ele>885.162598</ele>
        <time>2008-01-22T00:00:00Z</time>
      </trkpt>
      <trkpt lat="42.47041" lon="2.56891">
        <ele>880.023438</ele>
        <time>2008-01-22T00:00:00Z</time>
      </trkpt>
      <trkpt lat="42.47029" lon="2.56922">
        <ele>877.411987</ele>
        <time>2008-01-22T00:00:00Z</time>
      </trkpt>
      <trkpt lat="42.46996" lon="2.57031">
        <ele>869.34552</ele>
        <time>2008-01-22T00:00:00Z</time>
      </trkpt>
      <trkpt lat="42.46989" lon="2.57133">
        <ele>860.145752</ele>
        <time>2008-01-22T00:00:00Z</time>
      </trkpt>
      <trkpt lat="42.46993" lon="2.5718">
        <ele>854.332458</ele>
        <time>2008-01-22T00:00:00Z</time>
      </trkpt>
      <trkpt lat="42.46983" lon="2.57221">
        <ele>849.727478</ele>
        <time>2008-01-22T00:00:00Z</time>
      </trkpt>
      <trkpt lat="42.46945" lon="2.5732">
        <ele>844.218262</ele>
        <time>2008-01-22T00:00:00Z</time>
      </trkpt>
      <trkpt lat="42.46942" lon="2.57356">
        <ele>841.561646</ele>
        <time>2008-01-22T00:00:00Z</time>
      </trkpt>
      <trkpt lat="42.46953" lon="2.57424">
        <ele>833.221985</ele>
        <time>2008-01-22T00:00:00Z</time>
      </trkpt>
      <trkpt lat="42.46945" lon="2.57449">
        <ele>834.067749</ele>
        <time>2008-01-22T00:00:00Z</time>
      </trkpt>
      <trkpt lat="42.46913" lon="2.57528">
        <ele>835.631592</ele>
        <time>2008-01-22T00:00:00Z</time>
      </trkpt>
      <trkpt lat="42.46893" lon="2.57541">
        <ele>836.603516</ele>
        <time>2008-01-22T00:00:00Z</time>
      </trkpt>
      <trkpt lat="42.46827" lon="2.57555">
        <ele>835.479736</ele>
        <time>2008-01-22T00:00:00Z</time>
      </trkpt>
      <trkpt lat="42.46795" lon="2.5757">
        <ele>831.729675</ele>
        <time>2008-01-22T00:00:00Z</time>
      </trkpt>
      <trkpt lat="42.46721" lon="2.57598">
        <ele>829.418945</ele>
        <time>2008-01-22T00:00:00Z</time>
      </trkpt>
      <trkpt lat="42.46662" lon="2.57635">
        <ele>830.521423</ele>
        <time>2008-01-22T00:00:00Z</time>
      </trkpt>
      <trkpt lat="42.46629" lon="2.57649">
        <ele>823.255798</ele>
        <time>2008-01-22T00:00:00Z</time>
      </trkpt>
      <trkpt lat="42.46662" lon="2.57635">
        <ele>830.563904</ele>
        <time>2008-01-22T00:00:00Z</time>
      </trkpt>
      <trkpt lat="42.4672" lon="2.57598">
        <ele>829.463867</ele>
        <time>2008-01-22T00:00:00Z</time>
      </trkpt>
      <trkpt lat="42.46796" lon="2.5757">
        <ele>831.69342</ele>
        <time>2008-01-22T00:00:00Z</time>
      </trkpt>
      <trkpt lat="42.46827" lon="2.57555">
        <ele>835.479736</ele>
        <time>2008-01-22T00:00:00Z</time>
      </trkpt>
      <trkpt lat="42.46893" lon="2.57541">
        <ele>836.603516</ele>
        <time>2008-01-22T00:00:00Z</time>
      </trkpt>
      <trkpt lat="42.46913" lon="2.57528">
        <ele>835.631592</ele>
        <time>2008-01-22T00:00:00Z</time>
      </trkpt>
      <trkpt lat="42.46945" lon="2.57449">
        <ele>834.067749</ele>
        <time>2008-01-22T00:00:00Z</time>
      </trkpt>
      <trkpt lat="42.46953" lon="2.57424">
        <ele>833.221985</ele>
        <time>2008-01-22T00:00:00Z</time>
      </trkpt>
      <trkpt lat="42.46957" lon="2.57446">
        <ele>831.703979</ele>
        <time>2008-01-22T00:00:00Z</time>
      </trkpt>
      <trkpt lat="42.46967" lon="2.57467">
        <ele>829.388916</ele>
        <time>2008-01-22T00:00:00Z</time>
      </trkpt>
      <trkpt lat="42.46994" lon="2.57505">
        <ele>824.734802</ele>
        <time>2008-01-22T00:00:00Z</time>
      </trkpt>
      <trkpt lat="42.47009" lon="2.57518">
        <ele>822.643372</ele>
        <time>2008-01-22T00:00:00Z</time>
      </trkpt>
      <trkpt lat="42.47028" lon="2.57555">
        <ele>820.27655</ele>
        <time>2008-01-22T00:00:00Z</time>
      </trkpt>
      <trkpt lat="42.47024" lon="2.57607">
        <ele>820.006042</ele>
        <time>2008-01-22T00:00:00Z</time>
      </trkpt>
      <trkpt lat="42.47027" lon="2.57632">
        <ele>816.696777</ele>
        <time>2008-01-22T00:00:00Z</time>
      </trkpt>
      <trkpt lat="42.47024" lon="2.57652">
        <ele>815.216553</ele>
        <time>2008-01-22T00:00:00Z</time>
      </trkpt>
      <trkpt lat="42.47014" lon="2.57673">
        <ele>814.257813</ele>
        <time>2008-01-22T00:00:00Z</time>
      </trkpt>
      <trkpt lat="42.47004" lon="2.57686">
        <ele>813.213501</ele>
        <time>2008-01-22T00:00:00Z</time>
      </trkpt>
      <trkpt lat="42.46974" lon="2.57697">
        <ele>815.894104</ele>
        <time>2008-01-22T00:00:00Z</time>
      </trkpt>
      <trkpt lat="42.46946" lon="2.57727">
        <ele>812.460999</ele>
        <time>2008-01-22T00:00:00Z</time>
      </trkpt>
      <trkpt lat="42.46929" lon="2.57757">
        <ele>810.820618</ele>
        <time>2008-01-22T00:00:00Z</time>
      </trkpt>
      <trkpt lat="42.46912" lon="2.57775">
        <ele>809.592896</ele>
        <time>2008-01-22T00:00:00Z</time>
      </trkpt>
      <trkpt lat="42.46896" lon="2.57787">
        <ele>809.079163</ele>
        <time>2008-01-22T00:00:00Z</time>
      </trkpt>
      <trkpt lat="42.46895" lon="2.57796">
        <ele>808.852783</ele>
        <time>2008-01-22T00:00:00Z</time>
      </trkpt>
      <trkpt lat="42.46906" lon="2.57823">
        <ele>808.401184</ele>
        <time>2008-01-22T00:00:00Z</time>
      </trkpt>
    </trkseg>
  </trk>
</gpx>